x

Scilly St Marys (03803) Weather Station

8:00 - Sun 1st Feb 2015 All times are GMT.

  • Wind
    23mph, 37mph gusts
  • Ar Temp 42°f
  • Sea Pressure 1009mb
  • Scilly St Marys
  • Scilly St Marys

More Historic Weather Station data

Upgrade to MSW Pro to gain access to the past 30 days of data for over 8000 Wavebouys and Weather Stations around the globe.

Join Pro

Comparision Forecast

View Surf forecast
   
Dom 02/01 8:00 23 37 mph 1009mb 42f
7:00 25 43 mph 1009mb 42f
6:00 24 36 mph 1009mb 42f
5:00 28 40 mph 1008mb 43f
4:00 25 41 mph 1008mb 43f
3:00 26 37 mph 1008mb 42f
2:00 25 38 mph 1008mb 42f
1:00 28 40 mph 1007mb 43f
12:00 25 45 mph 1007mb 43f
Sáb 01/31 11:00 31 43 mph 1007mb 43f
10:00 30 45 mph 1006mb 43f
9:00 26 47 mph 1006mb 44f
8:00 28 49 mph 1005mb 44f
7:00 34 51 mph 1004mb 44f
6:00 32 49 mph 1002mb 44f
5:00 37 49 mph 1001mb 44f
4:00 34 49 mph 1000mb 44f
3:00 34 48 mph 999mb 44f
2:00 36 48 mph 998mb 44f
1:00 36 51 mph 997mb 45f
12:00 34 51 mph 996mb 44f
11:00 36 51 mph 995mb 44f
10:00 34 49 mph 994mb 43f
9:00 31 45 mph 993mb 43f
8:00 31 44 mph 992mb 43f
7:00 30 43 mph 991mb 43f
6:00 31 45 mph 990mb 43f
5:00 31 41 mph 990mb 43f
4:00 29 45 mph 989mb 43f
3:00 26 41 mph 989mb 42f
2:00 26 39 mph 989mb 43f
1:00 24 38 mph 989mb 43f
12:00 28 36 mph 988mb 43f
Sex 01/30 11:00 24 36 mph 988mb 44f
10:00 22 31 mph 988mb 44f
9:00 15 33 mph 987mb 42f
8:00 19 36 mph 987mb 45f
7:00 19 29 mph 987mb 44f
6:00 16 39 mph 987mb 43f
5:00 22 30 mph 987mb 45f
4:00 18 29 mph 987mb 46f
3:00 22 30 mph 987mb 46f
2:00 22 33 mph 987mb 47f
1:00 22 32 mph 988mb 47f
12:00 22 32 mph 989mb 47f
11:00 23 34 mph 989mb 47f
10:00 23 40 mph 989mb 47f
9:00 25 38 mph 989mb 46f
8:00 29 48 mph 989mb 46f
7:00 32 48 mph 989mb 46f
6:00 34 56 mph 989mb 47f
5:00 36 54 mph 989mb 47f
4:00 37 55 mph 988mb 46f
3:00 38 54 mph 989mb 44f
2:00 37 59 mph 989mb 45f
1:00 33 52 mph 990mb 46f
12:00 33 45 mph 990mb 45f
Qui 01/29 11:00 31 43 mph 991mb 44f
10:00 29 41 mph 991mb 43f
9:00 29 45 mph 991mb 42f
8:00 31 48 mph 990mb 43f
7:00 30 52 mph 989mb 40f
6:00 25 47 mph 988mb 42f
5:00 26 44 mph 988mb 43f
4:00 29 47 mph 988mb 42f
3:00 33 54 mph 988mb 45f
2:00 33 57 mph 988mb 45f
1:00 36 48 mph 989mb 46f
12:00 30 45 mph 990mb 45f
11:00 25 39 mph 991mb 46f
10:00 28 41 mph 993mb 44f
9:00 25 41 mph 994mb 46f
8:00 26 40 mph 995mb 45f
7:00 23 40 mph 997mb 45f
6:00 26 44 mph 998mb 44f
5:00 29 43 mph 999mb 45f
4:00 28 44 mph 1001mb 44f
3:00 24 41 mph 1002mb 45f
2:00 28 43 mph 1003mb 46f
1:00 33 46 mph 1005mb 44f
12:00 28 41 mph 1006mb 45f
Qua 01/28 11:00 23 38 mph 1007mb 45f
10:00 25 46 mph 1008mb 44f
9:00 25 45 mph 1009mb 42f
8:00 32 44 mph 1009mb 45f
7:00 29 53 mph 1010mb 44f
6:00 22 47 mph 1011mb 43f
5:00 23 38 mph 1011mb 44f
4:00 23 37 mph 1012mb 45f
3:00 28 41 mph 1012mb 46f
2:00 31 45 mph 1012mb 47f
1:00 30 49 mph 1012mb 45f
12:00 34 49 mph 1012mb 46f
11:00 34 51 mph 1012mb 49f
10:00 34 47 mph 1012mb 50f
9:00 31 46 mph 1012mb 50f